Location: Gleizolles
(44.4833°N, 6.7667°E)
Time: 20:01:45
(UTC+00:00)

Cosmos 2154 Rocket - Pass Details

Date: 09 April 2020
Orbit: 965 x 997 km, 82.9° (Epoch: 31 May)

Event Time Altitude Azimuth Distance (km) Brightness Sun altitude
Rises 19:23:35 0° 350° (N) 3,728 7.6 -13.1°
Reaches altitude 10° 19:26:08 10° 350° (N) 2,773 6.9 -13.5°
Maximum altitude 19:32:30 82° 264° (W) 1,007 4.1 -14.5°
Drops below altitude 10° 19:38:48 10° 178° (S) 2,737 6.1 -15.5°
Sets 19:41:17 0° 177° (S) 3,677 6.7 -15.9°
